EW4941 Weather Reports


time (UTC)temp
C
wind
direction
speed
KPH
gust
KPH
rain 1hr
cm
rain 24hr
cm
rain mn
cm
humidity
%
barometer
mb
20260504212437 17 0 6.4 14.5 0.00 0.03 0.03 51 1005.1
20260504211936 17 0 8.0 14.5 0.00 0.03 0.03 49 1005.1
20260504211708 17 0 8.0 14.5 0.00 0.03 0.03 49 1005.1
20260504210935 17 0 8.0 14.5 0.00 0.03 0.03 48 1005.0
20260504210435 17 0 8.0 16.1 0.00 0.03 0.03 49 1005.0
20260504205932 17 0 8.0 19.3 0.00 0.03 0.03 49 1005.0
20260504205704 17 0 8.0 19.3 0.00 0.03 0.03 48 1004.9
20260504204931 17 0 8.0 17.7 0.00 0.03 0.03 48 1005.0
20260504204433 17 0 11.3 24.1 0.00 0.03 0.03 47 1005.0
20260504204203 18 0 9.7 24.1 0.00 0.03 0.03 46 1004.9
20260504203432 18 0 8.0 22.5 0.00 0.03 0.03 49 1004.9
20260504202933 17 0 9.7 22.5 0.00 0.03 0.03 49 1004.8
20260504202431 17 0 12.9 24.1 0.00 0.03 0.03 47 1004.9
20260504202203 17 0 17.7 30.6 0.00 0.03 0.03 49 1004.8
20260504201433 17 0 17.7 32.2 0.00 0.03 0.03 49 1004.9
20260504200933 17 0 12.9 32.2 0.00 0.03 0.03 47 1004.9
20260504200432 17 0 12.9 25.7 0.00 0.03 0.03 47 1004.9
20260504195931 17 0 12.9 25.7 0.00 0.03 0.03 48 1004.9
20260504195431 17 0 14.5 33.8 0.00 0.03 0.03 48 1005.0
20260504195201 17 0 16.1 33.8 0.00 0.03 0.03 47 1005.0
20260504194432 17 0 14.5 33.8 0.00 0.03 0.03 50 1004.9
20260504193930 17 0 14.5 33.8 0.00 0.03 0.03 48 1005.0
20260504193429 17 0 14.5 29.0 0.00 0.03 0.03 49 1005.1
20260504192932 17 0 12.9 29.0 0.00 0.03 0.03 50 1005.1
20260504192428 17 0 14.5 30.6 0.00 0.03 0.03 50 1005.0
20260504191927 17 0 12.9 30.6 0.00 0.03 0.03 50 1005.1
20260504191427 17 0 12.9 29.0 0.00 0.03 0.03 52 1005.1
20260504190928 17 0 14.5 29.0 0.00 0.03 0.03 53 1005.2
20260504190423 17 0 12.9 24.1 0.00 0.03 0.03 55 1005.1
20260504185924 17 0 9.7 20.9 0.00 0.03 0.03 54 1005.2
20260504185423 17 0 8.0 22.5 0.00 0.03 0.03 56 1005.1
20260504184921 16 0 9.7 22.5 0.00 0.03 0.03 57 1005.2
20260504184425 16 0 11.3 20.9 0.00 0.03 0.03 58 1005.3
20260504183920 16 0 9.7 19.3 0.00 0.03 0.03 62 1005.3
20260504183421 15 0 11.3 20.9 0.00 0.03 0.03 62 1005.3
20260504182918 15 0 9.7 20.9 0.00 0.03 0.03 63 1005.4
20260504182417 15 0 6.4 19.3 0.00 0.03 0.03 65 1005.3
20260504181920 14 0 6.4 14.5 0.00 0.03 0.03 72 1005.5
20260504181416 13 0 6.4 14.5 0.00 0.03 0.03 73 1005.5
20260504181146 12 0 6.4 14.5 0.03 0.03 0.03 77 1005.5
20260504180416 12 0 4.8 14.5 0.03 0.03 0.03 77 1005.6
20260504175915 12 0 4.8 12.9 0.03 0.03 0.03 78 1005.7
20260504175416 11 0 6.4 12.9 0.03 0.03 0.03 78 1005.7
20260504174917 11 0 6.4 14.5 0.03 0.03 0.03 79 1005.8
20260504174415 11 0 6.4 14.5 0.03 0.03 0.03 79 1005.8
20260504173913 11 0 6.4 14.5 0.03 0.03 0.03 79 1005.8
20260504173415 11 0 8.0 17.7 0.03 0.03 0.03 80 1005.9
20260504172913 11 0 8.0 17.7 0.03 0.03 0.03 80 1005.9
20260504172415 11 0 8.0 16.1 0.03 0.03 0.03 80 1006.0
20260504171914 11 0 8.0 25.7 0.03 0.03 0.03 78 1006.0
20260504171411 11 0 11.3 25.7 0.03 0.03 0.03 77 1006.2
20260504171144 11 0 11.3 22.5 0.00 0.00 0.00 75 1006.1
20260504170411 12 0 11.3 22.5 0.00 0.00 0.00 74 1006.0
20260504160411 16 0 6.4 20.9 0.00 0.00 0.00 50 1004.5
20260504151024 13 0 4.8 14.5 0.00 0.00 0.00 60 1005.4
20260504150911 13 0 4.8 12.9 0.00 0.00 0.00 59 1005.2
20260504150641 13 0 4.8 12.9 0.00 0.00 0.00 59 1005.3
20260504141132 12 0 4.8 9.7 0.00 0.00 0.00 61 1006.2
20260504140402 11 0 4.8 9.7 0.00 0.00 0.00 60 1006.3
20260504130631 8 0 3.2 8.0 0.00 0.00 0.00 64 1007.1
20260504110352 3 0 1.6 6.4 0.00 0.00 0.00 76 1007.6
20260504081831 0 0 0.0 4.8 0.00 0.00 0.00 79 1007.2
20260504081331 0 0 1.6 4.8 0.00 0.00 0.00 79 1007.2
20260504080829 0 0 1.6 4.8 0.00 0.00 0.00 79 1007.3
20260504080329 0 0 1.6 4.8 0.00 0.00 0.00 79 1007.4
20260504070319 1 0 1.6 4.8 0.00 0.00 0.00 79 1007.2
20260504050538 2 0 1.6 4.8 0.00 0.00 0.00 73 1007.0
20260504045807 2 0 1.6 4.8 0.00 0.00 0.00 73 1007.1
20260504045306 2 0 1.6 4.8 0.00 0.00 0.00 73 1007.0
20260504044805 2 0 1.6 3.2 0.00 0.00 0.00 72 1007.0
20260504044304 2 0 1.6 3.2 0.00 0.00 0.00 72 1007.0
20260504043806 2 0 1.6 3.2 0.00 0.00 0.00 72 1007.1
20260504043304 2 0 1.6 3.2 0.00 0.00 0.00 72 1007.1
20260504042804 2 0 1.6 4.8 0.00 0.00 0.00 71 1007.1
20260504042309 2 0 1.6 3.2 0.00 0.00 0.00 71 1007.1
20260504042304 2 0 1.6 4.8 0.00 0.00 0.00 71 1007.1
20260504041302 3 0 1.6 4.8 0.00 0.00 0.00 70 1007.1
20260504040805 3 0 1.6 4.8 0.00 0.00 0.00 70 1007.1
20260504040302 3 0 1.6 4.8 0.00 0.00 0.00 70 1007.1
20260504035803 3 0 1.6 4.8 0.00 0.00 0.00 70 1007.0
20260504035302 3 0 1.6 4.8 0.00 0.00 0.00 71 1007.0
20260504034802 3 0 1.6 6.4 0.00 0.00 0.00 71 1007.0
20260504034534 3 0 1.6 6.4 0.00 0.00 0.00 71 1006.9
20260504033800 3 0 1.6 4.8 0.00 0.00 0.00 70 1006.7
20260504033300 3 0 1.6 4.8 0.00 0.00 0.00 69 1006.7
20260504032802 3 0 1.6 4.8 0.00 0.00 0.00 69 1006.7
20260504032303 3 0 3.2 4.8 0.00 0.00 0.00 68 1006.8
20260504032031 3 0 3.2 4.8 0.00 0.00 0.00 67 1006.7
20260504031301 3 0 3.2 4.8 0.00 0.00 0.00 67 1006.8
20260504031032 3 0 3.2 9.7 0.00 0.00 0.00 68 1006.7
20260504030258 3 0 4.8 9.7 0.00 0.00 0.00 68 1006.7
20260504025759 3 0 3.2 8.0 0.00 0.00 0.00 68 1006.7
20260504025259 3 0 3.2 6.4 0.00 0.00 0.00 67 1006.7
20260504024759 3 0 3.2 6.4 0.00 0.00 0.00 65 1006.7
20260504024258 3 0 3.2 6.4 0.00 0.00 0.00 65 1006.7
20260504023758 4 0 3.2 8.0 0.00 0.00 0.00 65 1006.6
20260504023257 4 0 3.2 8.0 0.00 0.00 0.00 64 1006.6
20260504022755 4 0 3.2 6.4 0.00 0.00 0.00 64 1006.6
20260504022254 5 0 1.6 6.4 0.00 0.00 0.00 62 1006.6
20260504022022 5 0 1.6 4.8 0.00 0.00 0.00 61 1006.6
20260504021252 5 0 1.6 3.2 0.00 0.00 0.00 60 1006.6
20260504020752 5 0 1.6 4.8 0.00 0.00 0.00 60 1006.6
20260504020532 5 0 1.6 4.8 0.00 0.03 0.00 60 1006.6
20260504015751 5 0 1.6 6.4 0.00 0.03 0.00 59 1006.7
20260504015251 5 0 3.2 6.4 0.00 0.03 0.00 59 1006.6
20260504014752 5 0 3.2 6.4 0.00 0.03 0.00 59 1006.7
20260504014521 5 0 3.2 6.4 0.00 0.05 0.00 58 1006.6
20260504013749 5 0 3.2 9.7 0.00 0.05 0.00 58 1006.6
20260504013250 6 0 4.8 9.7 0.00 0.05 0.00 58 1006.6
20260504012749 6 0 4.8 14.5 0.00 0.05 0.00 57 1006.5
20260504012248 6 0 6.4 14.5 0.00 0.05 0.00 57 1006.5
20260504011750 6 0 6.4 16.1 0.00 0.05 0.00 56 1006.5
20260504011248 6 0 8.0 16.1 0.00 0.05 0.00 56 1006.3
20260504010745 6 0 9.7 17.7 0.00 0.05 0.00 55 1006.3
20260504010246 6 0 9.7 17.7 0.00 0.05 0.00 55 1006.2
20260504005744 6 0 9.7 22.5 0.00 0.05 0.00 54 1006.2
20260504005244 6 0 9.7 22.5 0.00 0.05 0.00 54 1006.0
20260504004742 6 0 9.7 17.7 0.00 0.05 0.00 54 1006.0
20260504004241 6 0 9.7 17.7 0.00 0.05 0.00 53 1005.8
20260504003743 6 0 9.7 17.7 0.00 0.05 0.00 53 1005.8
20260504003509 6 0 9.7 16.1 0.00 0.05 0.00 53 1005.7
20260504002738 7 0 8.0 17.7 0.00 0.05 0.00 53 1005.6
20260504002241 7 0 8.0 17.7 0.00 0.05 0.00 52 1005.5
20260504001740 7 0 8.0 16.1 0.00 0.05 0.00 53 1005.5
20260504001242 7 0 8.0 16.1 0.00 0.05 0.00 53 1005.5
20260504000740 7 0 9.7 17.7 0.00 0.05 0.00 52 1005.3
20260504000241 7 0 8.0 17.7 0.00 0.05 0.00 51 1005.3
20260503235739 7 0 6.4 16.1 0.00 0.05 0.00 50 1005.2
20260503235240 7 0 9.7 24.1 0.00 0.05 0.00 49 1005.1
20260503234739 7 0 12.9 29.0 0.00 0.05 0.00 49 1005.0
20260503234237 7 0 14.5 29.0 0.00 0.05 0.00 48 1004.9
20260503233736 7 0 16.1 29.0 0.00 0.05 0.00 48 1005.0
20260503233238 8 0 14.5 29.0 0.00 0.05 0.00 48 1004.8
20260503232738 8 0 11.3 24.1 0.00 0.05 0.00 48 1004.8
20260503232237 8 0 11.3 20.9 0.00 0.05 0.00 47 1004.7
20260503232005 8 0 12.9 27.4 0.00 0.08 0.00 47 1004.6
20260503231233 8 0 14.5 27.4 0.00 0.08 0.00 47 1004.5
20260503230730 8 0 14.5 25.7 0.00 0.08 0.00 46 1004.4
20260503230232 8 0 14.5 25.7 0.00 0.08 0.00 46 1004.5
20260503225728 8 0 14.5 30.6 0.00 0.08 0.00 46 1004.3
20260503225230 8 0 16.1 30.6 0.00 0.08 0.00 46 1004.4
20260503225001 8 0 17.7 32.2 0.00 0.08 0.00 45 1004.4
20260503224227 8 0 17.7 32.2 0.00 0.08 0.00 44 1004.3
20260503223728 9 0 14.5 32.2 0.00 0.08 0.00 44 1004.2
20260503223229 9 0 14.5 35.4 0.00 0.08 0.00 45 1004.1
20260503222727 9 0 14.5 35.4 0.00 0.08 0.00 46 1004.0
20260503222227 8 0 14.5 35.4 0.00 0.08 0.00 45 1003.9
20260503221728 9 0 17.7 38.6 0.00 0.08 0.00 44 1003.9
20260503221228 9 0 22.5 43.5 0.00 0.08 0.00 43 1003.9
20260503220726 10 0 22.5 43.5 0.00 0.10 0.00 41 1003.8
20260503220226 10 0 20.9 38.6 0.00 0.10 0.00 43 1003.7
20260503215727 10 0 19.3 40.2 0.00 0.10 0.00 42 1003.7
20260503215226 10 0 19.3 40.2 0.00 0.10 0.00 44 1003.6
20260503214726 10 0 19.3 37.0 0.00 0.10 0.00 42 1003.5
20260503214458 10 0 20.9 37.0 0.00 0.10 0.00 44 1003.5
20260503213727 10 0 22.5 37.0 0.00 0.10 0.00 43 1003.4
20260503213227 10 0 22.5 40.2 0.00 0.10 0.00 45 1003.5
20260503212728 10 0 20.9 40.2 0.00 0.10 0.00 43 1003.3